STARLINK-34715, 64931

Orbit data source: Space-Track

STARLINK-34715, 64931 is a payload satellite owned by SpaceX/Seattle (US) in LEO that was launched on Sat, 26 Jul 2025 UTC via an FALCON 9 launch vehicle from the Air Force Eastern Test Range (AFETR). Payload-class satellites include a variety of spacecraft equipped with specific instruments for various scientific and technological missions. These include communications satellites like Starlink; space stations such as the ISS; scientific satellites like the Hubble; Earth observation satellites from companies like Planet Labs, Umbra, and HawkEye 360; GPS; miniature CubeSats for education and research; and military/defense satellites.

Loading next visibility...
Identifier
64931, 2025-157AD
Orbit
LEO
Country
Flag of USUS
Related business
Manufacturer
SpaceX/Seattle
Mission
Operational Commercial Communications
Bus & Motor
STARLINK V2MO, Unknown motor
Mass
575 kg wet, ~530 kg dry
Launch date (UTC)
2025-07-26 (4 months ago)
Launch vehicle
FALCON 9
Launch site
Air Force Eastern Test Range (AFETR)
Object type
Payload
Rocket body
Debris
Shape & HBR
Box + 2 Pan, 17.7 m
Radar Cross Section
36.964 m², Large (>1 m²)

Expand to show TLE details & history
Last TLE update: 21 hours ago

TLE from 21 hours ago
0 STARLINK-34715
1 64931U 25157AD  25340.52420596  .00122034  00000-0  30102-2 0  9990
2 64931  53.1579  62.3944 0000570  43.2754 316.8296 15.39640177 21809
Epoch: 2025-12-06T12:34Z
TLE epoch observation values (Epoch: 2025-12-06T12:34:51.394Z)
Latitude
-0.00001°
Longitude
158.12954°
Altitude
447.792 km
Speed
7.645 km/s
True Right ascension
04h 09m 34s
True Declination
0° 00' 00"
Sunlit
Object was in full shadow at epoch
Visualization orbit readout
Latitude
Unknown
Longitude
Unknown
Altitude
Unknown
Speed
Unknown
Apparent Right ascension
Unknown
Apparent Declination
Unknown
Sunlit
N/A
Visualization observer readout
Local Sidereal Time
07:41:10
Azimuth
Unknown
Elevation
Unknown
Doppler factor
Unknown
Orbital elements
Apogee altitude
447.819 km
Perigee altitude
447.041 km
Semi-major axis
6,825.567 km
Eccentricity
0.00006
Inclination
53.1579°
RAAN
62.3944°
Arg. of periapsis
43.2754°
True anomaly
316.82513°
Mean anomaly
316.8296°
Eccentric anomaly
316.82737°
Mean motion
3.84889 °/min
Orbital period
93.53 mins
BSTAR
0.0030102
Loading maneuver chart data...
Computing Atmospheric mass density...
Loading historical data...
Loading historical data...
Loading historical data...
Loading historical data...
Loading historical data...
Loading historical data...
Loading historical data...

Documentation

Showing up to 5 results
|